• In Czech Republic
  • List of Countries
  • For 7 days
  • Water Temperature
  • Satellite Maps
  • Weather Map
  • Weather Widgets
  • user-avatar
    Login

    Hourly Weather Orange Walk

    Today, 26 September, Tuesday

    Time Temperature Precipitation Wind Pressure Humidity
    00:00 +27°C° 0 mm 2 mps 753 mmHg 93%
    01:00 +27°C° 0.3 mm 2 mps 753 mmHg 93%
    02:00 +27°C° 0.3 mm 2 mps 753 mmHg 93%
    03:00 +27°C° 0.3 mm 2 mps 753 mmHg 93%
    04:00 +27°C° 0.4 mm 2 mps 753 mmHg 93%
    05:00 +27°C° 0.4 mm 2 mps 753 mmHg 92%
    06:00 +27°C° 0.4 mm 2 mps 753 mmHg 92%
    07:00 +29°C° 0.7 mm 2 mps 754 mmHg 87%
    08:00 +30°C° 0.7 mm 3 mps 754 mmHg 81%
    09:00 +33°C° 0.7 mm 3 mps 754 mmHg 76%
    10:00 +34°C° 0.7 mm 3 mps 754 mmHg 70%
    11:00 +35°C° 0.7 mm 3 mps 754 mmHg 65%
    12:00 +36°C° 0.7 mm 3 mps 753 mmHg 59%
    13:00 +36°C° 0.1 mm 3 mps 753 mmHg 59%
    14:00 +36°C° 0.1 mm 3 mps 752 mmHg 59%
    15:00 +36°C° 0.1 mm 3 mps 752 mmHg 60%
    16:00 +34°C° 0 mm 3 mps 752 mmHg 67%
    17:00 +33°C° 0 mm 3 mps 752 mmHg 74%
    18:00 +30°C° 0 mm 2 mps 752 mmHg 81%
    19:00 +29°C° 0 mm 2 mps 752 mmHg 85%
    20:00 +29°C° 0 mm 2 mps 753 mmHg 88%
    21:00 +28°C° 0 mm 2 mps 753 mmHg 91%
    22:00 +28°C° 0.3 mm 2 mps 753 mmHg 92%
    23:00 +28°C° 0.3 mm 2 mps 753 mmHg 93%

    Tomorrow, 27 September, Wednesday

    Time Temperature Precipitation Wind Pressure Humidity
    00:00 +28°C° 0.3 mm 2 mps 753 mmHg 94%
    01:00 +28°C° 0.3 mm 2 mps 753 mmHg 95%
    02:00 +28°C° 0.3 mm 2 mps 752 mmHg 95%
    03:00 +28°C° 0.3 mm 2 mps 752 mmHg 96%
    04:00 +28°C° 0.7 mm 2 mps 752 mmHg 96%
    05:00 +28°C° 0.7 mm 2 mps 752 mmHg 96%
    06:00 +28°C° 0.7 mm 2 mps 752 mmHg 97%
    07:00 +29°C° 0.7 mm 2 mps 753 mmHg 93%
    08:00 +30°C° 0.7 mm 2 mps 753 mmHg 90%
    09:00 +31°C° 0.7 mm 2 mps 754 mmHg 87%
    10:00 +32°C° 0.4 mm 2 mps 754 mmHg 80%
    11:00 +34°C° 0.4 mm 2 mps 753 mmHg 74%
    12:00 +35°C° 0.4 mm 2 mps 753 mmHg 68%
    13:00 +35°C° 0.2 mm 2 mps 753 mmHg 67%
    14:00 +35°C° 0.2 mm 2 mps 752 mmHg 66%
    15:00 +35°C° 0.2 mm 2 mps 752 mmHg 65%
    16:00 +34°C° 0.4 mm 2 mps 752 mmHg 73%
    17:00 +31°C° 0.4 mm 2 mps 752 mmHg 80%
    18:00 +30°C° 0.4 mm 2 mps 752 mmHg 88%
    19:00 +29°C° 2.1 mm 2 mps 753 mmHg 91%
    20:00 +28°C° 2.1 mm 2 mps 754 mmHg 94%
    21:00 +28°C° 2.1 mm 2 mps 754 mmHg 97%
    22:00 +28°C° 1.1 mm 2 mps 754 mmHg 97%
    23:00 +27°C° 1.1 mm 2 mps 754 mmHg 97%

    Day after tomorrow, 28 September, Thursday

    Time Temperature Precipitation Wind Pressure Humidity
    00:00 +27°C° 1.1 mm 2 mps 754 mmHg 97%
    01:00 +27°C° 0.5 mm 1 mps 754 mmHg 97%
    02:00 +27°C° 0.5 mm 1 mps 753 mmHg 97%
    03:00 +27°C° 0.5 mm 1 mps 753 mmHg 97%
    04:00 +27°C° 0 mm 1 mps 753 mmHg 97%
    05:00 +27°C° 0 mm 1 mps 753 mmHg 97%
    06:00 +25°C° 0 mm 0 mps 753 mmHg 97%
    07:00 +26°C° 0.1 mm 0 mps 754 mmHg 95%
    08:00 +27°C° 0.1 mm 0 mps 754 mmHg 93%
    09:00 +28°C° 0.1 mm 0 mps 755 mmHg 90%
    10:00 +30°C° 0.8 mm 1 mps 755 mmHg 87%
    11:00 +31°C° 0.8 mm 1 mps 754 mmHg 84%
    12:00 +31°C° 0.8 mm 1 mps 754 mmHg 81%
    13:00 +31°C° 0.2 mm 1 mps 753 mmHg 79%
    14:00 +31°C° 0.2 mm 1 mps 753 mmHg 76%
    15:00 +32°C° 0.2 mm 1 mps 752 mmHg 73%
    16:00 +31°C° 0.1 mm 1 mps 752 mmHg 79%
    17:00 +29°C° 0.1 mm 1 mps 753 mmHg 84%
    18:00 +28°C° 0.1 mm 1 mps 753 mmHg 89%
    19:00 +28°C° 0.1 mm 1 mps 754 mmHg 91%
    20:00 +28°C° 0.1 mm 1 mps 754 mmHg 92%
    21:00 +27°C° 0.1 mm 1 mps 755 mmHg 94%
    22:00 +27°C° 0.3 mm 1 mps 755 mmHg 95%
    23:00 +27°C° 0.3 mm 1 mps 755 mmHg 96%

    29 September, Friday

    Time Temperature Precipitation Wind Pressure Humidity
    00:00 +27°C° 0.3 mm 1 mps 754 mmHg 97%
    01:00 +27°C° 0.3 mm 1 mps 754 mmHg 97%
    02:00 +27°C° 0.3 mm 1 mps 754 mmHg 98%
    03:00 +26°C° 0.3 mm 1 mps 753 mmHg 98%
    04:00 +26°C° 0.1 mm 1 mps 753 mmHg 98%
    05:00 +26°C° 0.1 mm 1 mps 754 mmHg 98%
    06:00 +26°C° 0.1 mm 1 mps 754 mmHg 98%
    07:00 +28°C° 0.2 mm 1 mps 754 mmHg 94%
    08:00 +29°C° 0.2 mm 1 mps 755 mmHg 90%
    09:00 +30°C° 0.2 mm 1 mps 756 mmHg 86%
    10:00 +31°C° 0.9 mm 1 mps 755 mmHg 81%
    11:00 +32°C° 0.9 mm 1 mps 755 mmHg 76%
    12:00 +33°C° 0.9 mm 1 mps 754 mmHg 71%
    13:00 +33°C° 0.3 mm 1 mps 753 mmHg 71%
    14:00 +32°C° 0.3 mm 1 mps 753 mmHg 70%
    15:00 +32°C° 0.3 mm 1 mps 752 mmHg 69%
    16:00 +31°C° 0.1 mm 1 mps 753 mmHg 73%
    17:00 +30°C° 0.1 mm 1 mps 753 mmHg 78%
    18:00 +29°C° 0.1 mm 1 mps 753 mmHg 83%
    19:00 +28°C° 0.2 mm 1 mps 754 mmHg 85%
    20:00 +28°C° 0.2 mm 1 mps 754 mmHg 86%
    21:00 +28°C° 0.2 mm 1 mps 755 mmHg 88%
    22:00 +27°C° 0.5 mm 1 mps 755 mmHg 91%
    23:00 +27°C° 0.5 mm 1 mps 754 mmHg 93%

    30 September, Saturday

    Time Temperature Precipitation Wind Pressure Humidity
    00:00 +27°C° 0.5 mm 1 mps 754 mmHg 95%
    01:00 +27°C° 0.3 mm 1 mps 754 mmHg 96%
    02:00 +27°C° 0.3 mm 1 mps 754 mmHg 97%
    03:00 +27°C° 0.3 mm 1 mps 754 mmHg 98%
    04:00 +27°C° 0.1 mm 1 mps 754 mmHg 98%
    05:00 +27°C° 0.1 mm 1 mps 754 mmHg 98%
    06:00 +26°C° 0.1 mm 1 mps 754 mmHg 98%
    07:00 +28°C° 0.2 mm 1 mps 755 mmHg 93%
    08:00 +30°C° 0.2 mm 1 mps 755 mmHg 87%
    09:00 +31°C° 0.2 mm 1 mps 756 mmHg 82%
    10:00 +32°C° 1.6 mm 1 mps 755 mmHg 82%
    11:00 +32°C° 1.6 mm 2 mps 755 mmHg 83%
    12:00 +32°C° 1.6 mm 2 mps 754 mmHg 83%
    13:00 +32°C° 1.4 mm 2 mps 754 mmHg 85%
    14:00 +31°C° 1.4 mm 2 mps 753 mmHg 87%
    15:00 +31°C° 1.4 mm 2 mps 753 mmHg 89%
    16:00 +30°C° 0.9 mm 2 mps 753 mmHg 91%
    17:00 +29°C° 0.9 mm 2 mps 753 mmHg 93%
    18:00 +28°C° 0.9 mm 2 mps 754 mmHg 95%
    19:00 +28°C° 1 mm 2 mps 754 mmHg 96%
    20:00 +27°C° 1 mm 2 mps 754 mmHg 96%
    21:00 +27°C° 1 mm 2 mps 755 mmHg 97%
    22:00 +27°C° 1.1 mm 1 mps 755 mmHg 97%
    23:00 +27°C° 1.1 mm 1 mps 754 mmHg 98%

    1 October, Sunday

    Time Temperature Precipitation Wind Pressure Humidity
    00:00 +27°C° 1.1 mm 1 mps 754 mmHg 98%
    01:00 +27°C° 0.7 mm 1 mps 754 mmHg 98%
    02:00 +27°C° 0.7 mm 1 mps 753 mmHg 98%
    03:00 +26°C° 0.7 mm 1 mps 753 mmHg 98%
    04:00 +26°C° 1.6 mm 1 mps 753 mmHg 98%
    05:00 +26°C° 1.6 mm 1 mps 754 mmHg 98%
    06:00 +26°C° 1.6 mm 1 mps 754 mmHg 98%
    07:00 +27°C° 1.7 mm 1 mps 754 mmHg 95%
    08:00 +29°C° 1.7 mm 1 mps 754 mmHg 92%
    09:00 +30°C° 1.7 mm 1 mps 755 mmHg 89%
    10:00 +31°C° 0.9 mm 1 mps 754 mmHg 81%
    11:00 +32°C° 0.9 mm 2 mps 754 mmHg 73%
    12:00 +35°C° 0.9 mm 2 mps 754 mmHg 65%
    13:00 +34°C° 1.1 mm 2 mps 753 mmHg 67%
    14:00 +34°C° 1.1 mm 2 mps 752 mmHg 70%
    15:00 +32°C° 1.1 mm 2 mps 752 mmHg 73%
    16:00 +31°C° 0.2 mm 2 mps 752 mmHg 77%
    17:00 +30°C° 0.2 mm 2 mps 753 mmHg 82%
    18:00 +28°C° 0.2 mm 1 mps 753 mmHg 86%
    19:00 +28°C° 0.1 mm 1 mps 753 mmHg 88%
    20:00 +27°C° 0.1 mm 1 mps 754 mmHg 90%
    21:00 +27°C° 0.1 mm 1 mps 754 mmHg 93%
    22:00 +27°C° 0.2 mm 1 mps 754 mmHg 93%
    23:00 +27°C° 0.2 mm 1 mps 754 mmHg 94%
    Show more